Regional Weather Roundup
Issued by NWS

Home | Current Version | Previous Version | Text Only | Print | Product List | Glossary On
Versions: 1 2 3 4 5 6 7 8 9 10 11 12 13 14 15 16 17 18 19 20 21 22 23 24 25 26 27 28 29 30 31 32 33 34 35 36 37 38 39 40 41 42 43 44 45 46 47 48 49 50
000
ASUS43 KMKX 191600
RWRWI

WISCONSIN REGIONAL WEATHER ROUNDUP
NATIONAL WEATHER SERVICE MILWAUKEE/SULLIVAN WI
1000 AM CST SUN FEB 19 2017

NOTE: "FAIR" INDICATES FEW OR NO CLOUDS BELOW 12,000 FEET WITH NO
SIGNIFICANT WEATHER AND/OR OBSTRUCTIONS TO VISIBILITY.

WIZ001-002-006>008-014>016-023>028-191700-
NORTHWEST WISCONSIN

CITY           SKY/WX    TMP DP  RH WIND       PRES   REMARKS
SUPERIOR ARPT  PTSUNNY   37  32  82 NE3       30.00R
ASHLAND        CLOUDY    41  32  70 CALM      30.01S
HAYWARD        CLOUDY    46  31  55 SE6       29.98S
SIREN          MOSUNNY   43  35  72 SE3       29.97S
CUMBERLAND     SUNNY     39  34  81 S3        29.98S
RICE LAKE      SUNNY     43  36  76 CALM      30.01R
CHETEK         SUNNY     42  36  76 CALM      30.00R
LADYSMITH      SUNNY     43  35  72 CALM      30.02R
EAU CLAIRE     NOT AVBL
MENOMONIE      SUNNY     38  35  87 CALM      30.00S
NEW RICHMOND   SUNNY     46  38  73 SE6       29.97S
OSCEOLA        SUNNY     44  37  75 SE7       29.99F
$$

WIZ003>005-009-010-017-018-191700-
NORTH CENTRAL WISCONSIN

CITY           SKY/WX    TMP DP  RH WIND       PRES   REMARKS
MANITOWISH WTR MOSUNNY   36  30  78 CALM      30.00R
ARBOR VITAE    MOSUNNY   39  30  70 CALM      30.00R
WOODRUFF       MOSUNNY   39  30  70 CALM      30.00R
RHINELANDER    MOSUNNY   42  32  67 CALM      30.01R
EAGLE RIVER    MOSUNNY   40  28  61 CALM      30.00R
LAND O LAKES   CLOUDY    40  29  65 CALM      30.01R
PHILLIPS       SUNNY     38  33  80 CALM      29.99S
TOMAHAWK       CLOUDY    43  31  63 CALM      30.01S
MEDFORD        SUNNY     40  33  77 E5        30.00S
MERRILL        NOT AVBL
$$

WIZ029-030-035-036-043>047-191700-
CENTRAL WISCONSIN

CITY           SKY/WX    TMP DP  RH WIND       PRES   REMARKS
WAUSAU         SUNNY     44  34  67 CALM      30.01R
MOSINEE        NOT AVBL
MARSHFIELD     SUNNY     44  35  70 SE3       30.01R
STEVENS POINT  SUNNY     41  32  71 CALM      30.03R
WAUPACA        SUNNY     51  35  54 CALM      30.04R
WAUTOMA        SUNNY     48  36  63 CALM      30.04R
WISC RAPIDS    SUNNY     48  36  63 CALM      30.04R
CAMP DOUGLAS   NOT AVBL
$$

WIZ011>013-019>022-031-037>040-048>050-191700-
NORTHEAST WISCONSIN

CITY           SKY/WX    TMP DP  RH WIND       PRES   REMARKS
ANTIGO         SUNNY     35  31  87 CALM      30.02R
SHAWANO        SUNNY     50  32  51 CALM      30.04R
OCONTO         SUNNY     48  31  53 N5        30.03R
STURGEON BAY   SUNNY     47  31  53 NW6       30.04R
GREEN BAY      SUNNY     53  34  48 NE5       30.03S
MANITOWOC      NOT AVBL
APPLETON       MOSUNNY   48  32  53 CALM      30.02R
CLINTONVILLE   SUNNY     46  32  57 NE3       30.03R
OSHKOSH        SUNNY     48  36  63 CALM      30.03R
$$

WIZ032>034-041-042-053>061-191700-
SOUTHWEST WISCONSIN

CITY           SKY/WX    TMP DP  RH WIND       PRES   REMARKS
LA CROSSE      SUNNY     41  33  73 SE5       30.03R
SPARTA         CLOUDY    40  33  75 CALM      30.03R
VIROQUA        SUNNY     48  33  54 CALM      30.02R
BOSCOBEL       SUNNY     41  33  73 CALM      30.04S
PRAIRIE DU CHI SUNNY     37  36  96 CALM      30.03S
PLATTEVILLE    SUNNY     48  40  73 S3        30.04R
$$

WIZ056-057-062-063-064-067-068-191700-
SOUTH CENTRAL WISCONSIN

CITY           SKY/WX    TMP DP  RH WIND       PRES   REMARKS
REEDSBURG      SUNNY     44  34  67 CALM      30.03R
BARABOO/DELLS  SUNNY     47  35  63 CALM      30.02S
LONE ROCK      NOT AVBL
MINERAL POINT  SUNNY     52  34  50 SE6       30.03R
MADISON        MOSUNNY   49  36  61 S3        30.03R
MIDDLETON      SUNNY     48  40  75 CALM      30.04R
WATERTOWN      SUNNY     47  35  63 CALM      30.03S
MONROE         SUNNY     52  32  46 SE5       30.04R
JANESVILLE     MOSUNNY   48  37  66 CALM      30.05R
$$

WIZ051-052-058>065-066-070>072-191700-
SOUTHEAST WISCONSIN

CITY           SKY/WX    TMP DP  RH WIND       PRES   REMARKS
MILWAUKEE      MOSUNNY   57  30  35 NE8       30.05R
WAUKESHA       SUNNY     52  34  50 CALM      30.05R
MILWAUKEE/TIMM SUNNY     54  28  37 NE5       30.05R
RACINE         SUNNY     57  29  34 NE6       30.06R
KENOSHA        SUNNY     55  36  48 E5        30.05R
FOND DU LAC    SUNNY     47  34  60 CALM      30.04R
SHEBOYGAN      SUNNY     51  34  52 CALM      30.04R
WEST BEND      SUNNY     52  32  46 CALM      30.04R
JUNEAU         SUNNY     46  34  62 CALM      30.04S
$$

LSZ147-162-191700-
LAKE SUPERIOR

STATION/POSITION TIME  TEMP    WIND        PRES    WAVE
                       AIR SEA DIR/SP/G            HT/PER
                 (UTC) (F)     (DEG/KT/KT) (MB)    (FT/S)
DEVILS ISLAND    1500   37      60/  3/  4 1016.9R
PORT WING        1540   39      CALM  /  2 1015.9F
SAXON HARBOR     1530   35     300/  2/  3 1016.6R
$$

LMZ867-665-643>646-191700-
LAKE MICHIGAN

STATION/POSITION TIME  TEMP    WIND        PRES    WAVE
                       AIR SEA DIR/SP/G            HT/PER
                 (UTC) (F)     (DEG/KT/KT) (MB)    (FT/S)
CHAMBERS ISLAND  1540   50     320/  4/  6 1016.6R
NORTHPORT PIER   1540   42     320/  8/  9 1016.9R
SISTER BAY       1520             CALM       N/A
KEWAUNEE LAKESHO 1530   49     300/  3/  7 1016.4R
SHEBOYGAN LAKESH 1500   48     350/  2/  4 1017.0R
PORT WASHINGTON  1530   54     360/  3/  6 1017.9S
MILWAUKEE LAKESH 1530   45     130/  4/  5   N/A
KENOSHA   LAKESH 1500   49      CALM  /  3 1017.3
$$

TC  - TEMPERATURE IN CELSIUS
VSB - VISIBILITY IN STATUTE MILES
WCI - WIND CHILL INDEX
HX  - HEAT INDEX





USA.gov is the U.S. government's official web portal to all federal, state and local government web resources and services.